Weather History for Beach, ND

Change the Weather History Date:

Wednesday, November 21, 2012

  Actual Average (KGDV) Record (KGDV)
Temperature  
Mean Temperature 48 °F -  
Max Temperature 64 °F 35 °F 57 °F (2012)
Min Temperature 32 °F 18 °F -14 °F (2013)
Degree Days  
Heating Degree Days 17    
Moisture  
Dew Point 35 °F    
Average Humidity 72    
Maximum Humidity 100    
Minimum Humidity 34    
Precipitation  
Precipitation 0.00 in - - ()
Sea Level Pressure  
Sea Level Pressure 29.71 in    
Wind  
Wind Speed 7 mph (SSW)    
Max Wind Speed 21 mph    
Max Gust Speed 25 mph    
Visibility 10 miles    
Events      
Averages and records for this station are not official NWS values.
T = Trace of Precipitation, MM = Missing Value Source: NWS Daily Summary

Daily Weather History Graph

Daily Weather History Graph

Search for Another Location

Airport:

Trip Planner

Search our weather history database for the weather conditions in past years. The results will help you decide how hot, cold, wet, or windy it might be!

Date:

Astronomy

Nov. 21, 2012 Rise Set
Actual Time 7:08 AM MST 4:15 PM MST
Civil Twilight 6:34 AM MST 4:48 PM MST
Nautical Twilight 5:57 AM MST 5:26 PM MST
Astronomical Twilight 5:21 AM MST 6:02 PM MST
Moon 12:54 PM MST (11/21) 12:06 AM MST (11/21)
Length of Visible Light 10h 14m
Length of Day
9h 06m
Waxing Gibbous, 62% of the Moon is Illuminated
Nov 21
Waxing Gibbous
Nov 28
Full
Dec 6
Last Quarter
Dec 13
New
Dec 19
First Quarter

Hourly Weather History & Observations

Time (MST) Temp. Windchill Dew Point Humidity Pressure Visibility Wind Dir Wind Speed Gust Speed Precip Events Conditions
12:15 AM 39.2 °F 34.2 °F 32.0 °F 75% 29.81 in 10.0 mi South 6.9 mph - N/A   Partly Cloudy
12:35 AM 39.2 °F 35.0 °F 32.0 °F 75% 29.81 in 10.0 mi South 5.8 mph - N/A   Clear
12:55 AM 41.0 °F 36.4 °F 32.0 °F 70% 29.81 in 10.0 mi South 6.9 mph - N/A   Clear
1:15 AM 39.2 °F 34.2 °F 32.0 °F 75% 29.80 in 10.0 mi South 6.9 mph - N/A   Clear
1:35 AM 39.2 °F 35.9 °F 32.0 °F 75% 29.80 in 10.0 mi South 4.6 mph - N/A   Clear
1:55 AM 39.2 °F 35.0 °F 32.0 °F 75% 29.80 in 10.0 mi SSE 5.8 mph - N/A   Clear
2:15 AM 39.2 °F 37.0 °F 32.0 °F 75% 29.80 in 10.0 mi SSE 3.5 mph - N/A   Clear
2:35 AM 37.4 °F 32.1 °F 32.0 °F 81% 29.80 in 10.0 mi South 6.9 mph - N/A   Clear
2:55 AM 37.4 °F 32.8 °F 32.0 °F 81% 29.80 in 10.0 mi South 5.8 mph - N/A   Clear
3:15 AM 35.6 °F 29.2 °F 32.0 °F 87% 29.79 in 10.0 mi South 8.1 mph - N/A   Clear
3:35 AM 37.4 °F 34.9 °F 32.0 °F 81% 29.79 in 10.0 mi SSE 3.5 mph - N/A   Clear
3:55 AM 35.6 °F 32.8 °F 30.2 °F 81% 29.79 in 10.0 mi SSE 3.5 mph - N/A   Clear
4:15 AM 32.0 °F 28.7 °F 28.4 °F 87% 29.78 in 10.0 mi SSE 3.5 mph - N/A   Clear
4:35 AM 35.6 °F 32.8 °F 30.2 °F 81% 29.78 in 10.0 mi SSE 3.5 mph - N/A   Clear
4:55 AM 33.8 °F 30.8 °F 30.2 °F 87% 29.78 in 10.0 mi SE 3.5 mph - N/A   Clear
5:15 AM 33.8 °F 29.6 °F 30.2 °F 87% 29.77 in 10.0 mi SE 4.6 mph - N/A   Clear
5:35 AM 32.0 °F 25.6 °F 28.4 °F 87% 29.77 in 10.0 mi SE 6.9 mph - N/A   Clear
5:55 AM 32.0 °F 24.8 °F 28.4 °F 87% 29.76 in 9.0 mi South 8.1 mph - N/A   Clear
6:15 AM 32.0 °F 26.4 °F 30.2 °F 93% 29.75 in 10.0 mi South 5.8 mph - N/A   Clear
6:35 AM 32.0 °F 26.4 °F 30.2 °F 93% 29.76 in 10.0 mi SSE 5.8 mph - N/A   Clear
6:55 AM 33.8 °F 29.6 °F 30.2 °F 87% 29.75 in 10.0 mi South 4.6 mph - N/A   Clear
7:15 AM 35.6 °F 30.7 °F 32.0 °F 87% 29.74 in 10.0 mi South 5.8 mph - N/A   Clear
7:35 AM 37.4 °F 33.8 °F 32.0 °F 81% 29.74 in 10.0 mi SSE 4.6 mph - N/A   Clear
7:55 AM 35.6 °F - 32.0 °F 87% 29.74 in 10.0 mi Calm Calm - N/A   Clear
8:15 AM 35.6 °F 30.7 °F 32.0 °F 87% 29.74 in 10.0 mi South 5.8 mph - N/A   Clear
8:35 AM 39.2 °F 34.2 °F 33.8 °F 81% 29.73 in 10.0 mi South 6.9 mph - N/A   Clear
8:55 AM 41.0 °F 39.0 °F 33.8 °F 76% 29.72 in 10.0 mi South 3.5 mph - N/A   Clear
9:15 AM 44.6 °F - 35.6 °F 71% 29.72 in 10.0 mi Calm Calm - N/A   Clear
9:35 AM 44.6 °F - 37.4 °F 76% 29.71 in 10.0 mi Calm Calm - N/A   Clear
9:55 AM 48.2 °F - 37.4 °F 66% 29.71 in 10.0 mi South 4.6 mph - N/A   Clear
10:15 AM 48.2 °F - 37.4 °F 66% 29.70 in 10.0 mi South 3.5 mph - N/A   Clear
10:35 AM 50.0 °F - 37.4 °F 62% 29.69 in 10.0 mi South 4.6 mph - N/A   Clear
10:55 AM 53.6 °F - 37.4 °F 54% 29.68 in 10.0 mi South 5.8 mph - N/A   Clear
11:15 AM 55.4 °F - 37.4 °F 51% 29.67 in 10.0 mi South 6.9 mph - N/A   Clear
11:35 AM 57.2 °F - 37.4 °F 48% 29.65 in 10.0 mi SSW 8.1 mph - N/A   Clear
11:55 AM 59.0 °F - 35.6 °F 42% 29.64 in 10.0 mi SW 9.2 mph - N/A   Clear
12:15 PM 62.6 °F - 35.6 °F 37% 29.62 in 10.0 mi South 9.2 mph - N/A   Clear
12:35 PM 60.8 °F - 39.2 °F 45% 29.62 in 10.0 mi SSE 10.4 mph - N/A   Clear
12:55 PM 60.8 °F - 39.2 °F 45% 29.61 in 10.0 mi SSE 9.2 mph - N/A   Clear
1:15 PM 60.8 °F - 39.2 °F 45% 29.61 in 10.0 mi South 10.4 mph - N/A   Clear
1:35 PM 62.6 °F - 39.2 °F 42% 29.60 in 10.0 mi SSW 8.1 mph - N/A   Clear
1:55 PM 64.4 °F - 35.6 °F 34% 29.59 in 10.0 mi SSW 11.5 mph - N/A   Clear
2:15 PM 64.4 °F - 35.6 °F 34% 29.58 in 10.0 mi South 11.5 mph - N/A   Clear
2:35 PM 64.4 °F - 35.6 °F 34% 29.58 in 10.0 mi South 11.5 mph - N/A   Clear
2:55 PM 64.4 °F - 35.6 °F 34% 29.59 in 10.0 mi SSW 8.1 mph - N/A   Clear
3:15 PM 62.6 °F - 35.6 °F 37% 29.59 in 10.0 mi SW 11.5 mph - N/A   Clear
3:35 PM 60.8 °F - 35.6 °F 39% 29.59 in 10.0 mi WSW 9.2 mph - N/A   Clear
3:55 PM 57.2 °F - 37.4 °F 48% 29.62 in 10.0 mi WNW 17.3 mph 20.7 mph N/A   Clear
4:15 PM 53.6 °F - 35.6 °F 51% 29.63 in 10.0 mi WNW 20.7 mph 25.3 mph N/A   Partly Cloudy
4:35 PM 50.0 °F - 35.6 °F 58% 29.64 in 10.0 mi WNW 16.1 mph - N/A   Clear
4:55 PM 50.0 °F - 35.6 °F 58% 29.63 in 10.0 mi WNW 16.1 mph 24.2 mph N/A   Clear
5:15 PM 50.0 °F - 35.6 °F 58% 29.64 in 10.0 mi WNW 11.5 mph - N/A   Partly Cloudy
5:35 PM 48.2 °F - 37.4 °F 66% 29.65 in 10.0 mi WNW 12.7 mph - N/A   Mostly Cloudy
5:55 PM 46.4 °F 42.4 °F 37.4 °F 71% 29.65 in 10.0 mi WNW 8.1 mph - N/A   Overcast
6:15 PM 46.4 °F 41.1 °F 37.4 °F 71% 29.68 in 10.0 mi West 11.5 mph - N/A   Overcast
6:35 PM 46.4 °F 39.0 °F 37.4 °F 71% 29.65 in 10.0 mi North 19.6 mph - N/A   Overcast
6:55 PM 44.6 °F 38.1 °F 37.4 °F 76% 29.69 in 10.0 mi WNW 13.8 mph - N/A   Mostly Cloudy
7:15 PM 44.6 °F 40.7 °F 37.4 °F 76% 29.70 in 10.0 mi West 6.9 mph 16.1 mph N/A   Mostly Cloudy
7:35 PM 42.8 °F 37.5 °F 37.4 °F 81% 29.70 in 10.0 mi WNW 9.2 mph - N/A   Mostly Cloudy
7:55 PM 41.0 °F 35.8 °F 37.4 °F 87% 29.69 in 10.0 mi WNW 8.1 mph - N/A   Overcast
8:15 PM 41.0 °F 35.2 °F 35.6 °F 81% 29.70 in 10.0 mi WNW 9.2 mph - N/A   Scattered Clouds
8:35 PM 39.2 °F 32.5 °F 35.6 °F 87% 29.71 in 10.0 mi NW 10.4 mph - N/A   Clear
8:55 PM 39.2 °F 30.8 °F 35.6 °F 87% 29.70 in 10.0 mi NNW 15.0 mph - N/A   Partly Cloudy
9:15 PM 37.4 °F 30.3 °F 35.6 °F 93% 29.72 in 10.0 mi NW 10.4 mph - N/A   Partly Cloudy
9:35 PM 35.6 °F 30.7 °F 33.8 °F 93% 29.73 in 10.0 mi WNW 5.8 mph - N/A   Partly Cloudy
9:55 PM 35.6 °F 32.8 °F 35.6 °F 100% 29.76 in 10.0 mi West 3.5 mph - N/A   Mostly Cloudy
10:15 PM 37.4 °F 34.9 °F 35.6 °F 93% 29.77 in 10.0 mi SW 3.5 mph - N/A   Mostly Cloudy
10:35 PM 35.6 °F 29.2 °F 35.6 °F 100% 29.76 in 10.0 mi WSW 8.1 mph - N/A   Overcast
10:55 PM 37.4 °F 32.8 °F 35.6 °F 93% 29.76 in 10.0 mi West 5.8 mph - N/A   Overcast
11:15 PM 37.4 °F 31.4 °F 37.4 °F 100% 29.75 in 10.0 mi WNW 8.1 mph - N/A   Overcast
11:35 PM 37.4 °F 33.8 °F 37.4 °F 100% 29.76 in 10.0 mi NW 4.6 mph - N/A   Overcast
11:55 PM 35.6 °F 29.9 °F 35.6 °F 100% 29.77 in 10.0 mi WNW 6.9 mph - N/A   Overcast